Location: Владивосток
(43.1151°N, 131.8856°E)
Time: 17:46:58
(UTC+10:00)

DUCHIFAT 1 - Pass Details

Date: 03 July 2022
Orbit: 580 x 596 km, 98.0° (Epoch: 09 August)

Event Time Altitude Azimuth Distance (km) Brightness Sun altitude
Rises 03:01:30 0° 25° (NNE) 2,844 ? -19.6°
Reaches altitude 10° 03:03:58 10° 38° (NE) 1,939 ? -19.4°
Maximum altitude 03:07:30 26° 95° (E) 1,198 ? -19.1°
Enters shadow 03:09:56 16° 142° (SE) 1,590 ? -18.9°
